Tracking 30703 objects as of 14-Jun-2025
HD Live streaming from Space Station
objects crossing your sky now

STARLINK-31315

Track STARLINK-31315 now!
10-day predictions
STARLINK-31315 is classified as:


NORAD ID: 58884
Int'l Code: 2024-020J
Perigee: 481.7 km
Apogee: 483.1 km
Inclination: 53.2 °
Period: 94.1 minutes
Semi major axis: 6853 km
RCS: Unknown
Launch date: January 29, 2024
Source: United States (US)
Launch site: AIR FORCE WESTERN TEST RANGE (AFWTR)
Your satellite tracking list
Your tracking list is empty




NASA's NSSDC Master Catalog

Two Line Element Set (TLE):
1 58884U 24020J   25165.22878484 -.00001339  00000-0 -33106-4 0  9998
2 58884  53.1597 104.0414 0001075  83.3771 276.7352 15.30182172 78323
Source of the keplerian elements: AFSPC